Location: Stoke Bliss
(52.2667°N, 2.5167°W)
Time: 19:48:14
(UTC+00:00)

Cosmos 2333 Rocket - Pass Details

Date: 03 March 2021
Orbit: 837 x 864 km, 70.8° (Epoch: 15 April)

Event Time Altitude Azimuth Distance (km) Brightness Sun altitude
Rises 18:48:55 0° 157° (SSE) 3,392 5.1 -9.3°
Reaches altitude 10° 18:52:09 10° 138° (SE) 2,467 4.2 -9.8°
Maximum altitude 18:55:43 17° 99° (E) 2,007 3.5 -10.3°
Drops below altitude 10° 18:59:18 10° 59° (ENE) 2,490 4.2 -10.9°
Sets 19:02:35 0° 41° (NE) 3,438 5.0 -11.4°
